period_start,C,m1,H,J0,J1,J2,J3,J4,J5,JA,JB,JC,JD,JJ,JK,JN,#
2013-12-16 00:00:22,0.29,5.16,0.00,26.62,27.67,30.48,5.89,31.92,1017.10,2038.96,1967.35,2152.37,2304.21,349.54,319.79,29.02,0000 0000 0000 0000 000000
2013-12-16 00:01:22,0.40,5.16,0.00,26.68,27.67,30.47,5.86,32.00,1017.10,2038.97,1967.12,2152.14,2304.05,349.55,319.73,29.03,0000 0000 0000 0000 000000
2013-12-16 00:02:22,0.21,5.16,0.00,26.73,27.67,30.46,5.85,31.71,1017.10,2038.96,1966.90,2152.04,2303.77,350.00,320.09,29.03,0000 0000 0000 0000 000000
2013-12-16 00:03:23,0.18,5.17,0.00,26.63,27.66,30.46,5.96,32.08,1017.11,2038.97,1966.39,2151.78,2303.31,350.29,320.45,29.04,0000 0000 0000 0000 000000
2013-12-16 00:04:23,0.36,5.17,0.00,26.57,27.65,30.45,5.74,31.67,1017.11,2038.98,1966.14,2151.32,2303.11,350.45,320.38,29.04,0000 0000 0000 0000 000000
2013-12-16 00:05:24,0.29,5.17,0.00,26.53,27.65,30.46,5.96,32.08,1017.12,2038.96,1965.95,2151.11,2303.03,350.54,320.87,29.05,0000 0000 0000 0000 000000
2013-12-16 00:06:24,0.18,5.17,0.00,26.56,27.65,30.48,5.83,31.79,1017.11,2038.97,1965.45,2151.04,2302.72,350.82,321.30,29.06,0000 0000 0000 0000 000000
2013-12-16 00:07:25,0.28,5.17,0.00,26.59,27.65,30.47,5.88,32.17,1017.11,2038.97,1965.16,2150.78,2302.30,349.83,320.09,29.06,0000 0000 0000 0000 000000
2013-12-16 00:08:25,0.30,5.17,0.00,26.50,27.65,30.45,6.02,32.04,1017.12,2038.99,1965.03,2150.33,2302.10,350.39,320.57,29.07,0000 0000 0000 0000 000000
2013-12-16 00:09:25,0.28,5.18,0.00,26.44,27.65,30.46,5.93,32.13,1017.11,2038.98,1964.64,2150.12,2301.93,348.99,319.23,29.07,0000 0000 0000 0000 000000
2013-12-16 00:10:26,0.25,5.18,0.00,26.44,27.65,30.41,5.91,32.13,1017.11,2038.98,1964.23,2150.02,2301.45,349.63,320.09,29.08,0000 0000 0000 0000 000000
2013-12-16 00:11:26,0.28,5.18,0.00,26.51,27.65,30.41,5.99,32.33,1017.11,2038.98,1964.07,2149.64,2301.17,351.49,321.61,29.08,0000 0000 0000 0000 000000
2013-12-16 00:12:26,0.27,5.18,0.00,26.54,27.65,30.44,5.76,32.29,1017.12,2038.99,1963.75,2149.26,2301.06,349.69,320.02,29.09,0000 0000 0000 0000 000000
2013-12-16 00:13:26,0.29,5.18,0.00,26.53,27.65,30.42,5.96,32.08,1017.16,2038.99,1963.31,2149.09,2300.84,350.14,320.45,29.10,0000 0000 0000 0000 000000
2013-12-16 00:14:27,0.26,5.18,0.00,26.52,27.65,30.41,5.98,31.92,1017.14,2038.98,1963.10,2149.01,2300.37,350.94,321.19,29.10,0000 0000 0000 0000 000000
2013-12-16 00:15:27,0.23,5.19,0.00,26.55,27.64,30.44,5.85,32.29,1017.11,2038.99,1962.79,2148.63,2300.13,349.36,320.11,29.11,0000 0000 0000 0000 000000
2013-12-16 00:16:28,0.29,5.19,0.00,26.58,27.64,30.41,5.87,32.33,1017.11,2038.98,1962.30,2148.24,2299.99,349.38,319.68,29.11,0000 0000 0000 0000 000000
2013-12-16 00:17:28,0.36,5.19,0.00,26.58,27.64,30.39,5.76,31.96,1017.11,2038.99,1962.11,2148.08,2299.57,349.26,319.20,29.12,0000 0000 0000 0000 000000
2013-12-16 00:18:28,0.21,5.19,0.00,26.55,27.64,30.41,5.87,32.13,1017.11,2038.99,1961.94,2148.01,2299.22,349.15,319.51,29.13,0000 0000 0000 0000 000000
2013-12-16 00:19:29,0.21,5.19,0.00,26.58,27.63,30.41,5.89,32.21,1017.11,2038.98,1961.44,2147.62,2299.08,349.81,320.38,29.13,0000 0000 0000 0000 000000
2013-12-16 00:20:29,0.31,5.19,0.00,26.61,27.62,30.42,5.77,32.00,1017.11,2038.99,1961.16,2147.24,2298.91,350.08,320.30,29.14,0000 0000 0000 0000 000000
2013-12-16 00:21:29,0.30,5.20,0.00,26.63,27.62,30.43,5.98,32.00,1017.11,2038.98,1961.04,2147.08,2298.42,350.30,320.47,29.14,0000 0000 0000 0000 000000
2013-12-16 00:22:30,0.22,5.20,0.00,26.60,27.62,30.45,5.84,31.79,1017.11,2038.98,1960.65,2147.00,2298.15,351.30,321.42,29.15,0000 0000 0000 0000 000000
2013-12-16 00:23:30,0.20,5.20,0.00,26.57,27.62,30.41,5.93,31.79,1017.11,2038.99,1960.25,2146.74,2298.04,348.73,319.10,29.16,0000 0000 0000 0000 000000
2013-12-16 00:24:31,0.27,5.20,0.00,26.61,27.62,30.43,5.86,32.13,1017.12,2038.99,1960.08,2146.31,2297.88,349.14,319.44,29.16,0000 0000 0000 0000 000000
2013-12-16 00:25:31,0.29,5.20,0.00,26.63,27.62,30.39,5.91,31.96,1017.11,2038.99,1959.77,2146.11,2297.43,350.36,320.53,29.17,0000 0000 0000 0000 000000
2013-12-16 00:26:31,0.27,5.20,0.00,26.58,27.62,30.40,5.75,31.38,1017.12,2038.99,1959.30,2146.02,2297.16,349.13,319.46,29.17,0000 0000 0000 0000 000000
2013-12-16 00:27:32,0.25,5.20,0.00,26.55,27.62,30.39,5.89,31.79,1017.15,2038.99,1959.11,2145.74,2297.03,349.81,320.13,29.18,0000 0000 0000 0000 000000
2013-12-16 00:28:32,0.23,5.21,0.00,26.49,27.62,30.38,5.75,31.25,1017.13,2038.99,1958.86,2145.29,2296.65,349.39,319.79,29.18,0000 0000 0000 0000 000000
2013-12-16 00:29:32,0.33,5.21,0.00,26.52,27.62,30.39,5.89,32.00,1017.19,2038.99,1958.35,2145.10,2296.24,350.05,320.39,29.19,0000 0000 0000 0000 000000
2013-12-16 00:30:32,0.33,5.21,0.00,26.58,27.62,30.39,5.92,32.00,1017.35,2038.99,1958.12,2145.02,2296.08,348.54,319.33,29.20,0000 0000 0000 0000 000000
2013-12-16 00:31:33,0.16,5.21,0.00,26.63,27.61,30.39,5.88,32.50,1017.52,2038.99,1957.95,2144.70,2296.00,350.57,320.71,29.20,0000 0000 0000 0000 000000
2013-12-16 00:32:33,0.27,5.21,0.00,26.59,27.61,30.42,5.92,32.00,1017.59,2038.99,1957.45,2144.29,2295.53,351.05,321.35,29.21,0000 0000 0000 0000 000000
2013-12-16 00:33:34,0.38,5.21,0.00,26.61,27.61,30.42,5.82,31.96,1017.59,2038.99,1957.17,2144.10,2295.19,349.26,319.61,29.21,0000 0000 0000 0000 000000
2013-12-16 00:34:34,0.23,5.22,0.00,26.65,27.60,30.39,5.77,31.88,1017.61,2038.99,1957.04,2144.04,2295.07,349.49,320.07,29.22,0000 0000 0000 0000 000000
2013-12-16 00:35:34,0.10,5.22,0.00,26.65,27.60,30.40,6.03,32.13,1017.63,2038.99,1956.68,2143.90,2294.89,349.86,320.21,29.23,0000 0000 0000 0000 000000
2013-12-16 00:36:35,0.27,5.22,0.00,26.65,27.60,30.38,5.71,31.67,1017.71,2038.99,1956.27,2143.44,2294.40,349.49,319.97,29.23,0000 0000 0000 0000 000000
2013-12-16 00:37:35,0.39,5.22,0.00,26.65,27.60,30.38,6.05,32.13,1017.80,2038.99,1956.09,2143.16,2294.15,350.09,320.00,29.24,0000 0000 0000 0000 000000
2013-12-16 00:38:35,0.23,5.22,0.00,26.60,27.60,30.42,5.81,31.63,1017.80,2038.99,1955.78,2143.05,2294.01,349.23,320.28,29.24,0000 0000 0000 0000 000000
2013-12-16 00:39:36,0.19,5.22,0.00,26.58,27.60,30.39,5.83,31.79,1017.94,2038.99,1955.30,2142.86,2293.75,349.83,320.36,29.25,0000 0000 0000 0000 000000
2013-12-16 00:40:36,0.33,5.23,0.00,26.58,27.60,30.40,6.00,31.92,1018.00,2038.99,1955.10,2142.36,2293.30,350.02,320.85,29.25,0000 0000 0000 0000 000000
2013-12-16 00:41:36,0.33,5.23,0.00,26.63,27.60,30.41,5.89,31.42,1018.05,2038.99,1954.89,2142.13,2293.11,350.63,321.07,29.26,0000 0000 0000 0000 000000
2013-12-16 00:42:37,0.23,5.23,0.00,26.62,27.60,30.41,5.89,31.92,1018.08,2038.99,1954.38,2142.04,2292.88,349.80,320.33,29.27,0000 0000 0000 0000 000000
2013-12-16 00:43:37,0.28,5.23,0.00,26.60,27.60,30.40,5.83,31.71,1018.08,2038.99,1954.12,2141.70,2292.37,350.24,321.07,29.27,0000 0000 0000 0000 000000
2013-12-16 00:44:38,0.32,5.23,0.00,26.60,27.60,30.39,5.83,31.58,1018.08,2038.99,1953.84,2141.28,2292.13,350.13,320.54,29.28,0000 0000 0000 0000 000000
2013-12-16 00:45:38,0.32,5.23,0.00,26.54,27.59,30.39,5.79,31.63,1018.08,2038.99,1953.35,2141.10,2292.04,349.13,319.80,29.28,0000 0000 0000 0000 000000
2013-12-16 00:46:38,0.24,5.24,0.00,26.53,27.59,30.40,5.87,31.75,1018.08,2038.99,1953.13,2140.98,2291.67,349.18,319.99,29.29,0000 0000 0000 0000 000000
2013-12-16 00:47:39,0.23,5.24,0.00,26.52,27.58,30.40,5.94,31.67,1018.07,2038.99,1952.91,2140.58,2291.26,350.34,320.32,29.30,0000 0000 0000 0000 000000
2013-12-16 00:48:39,0.33,5.24,0.00,26.50,27.58,30.37,5.97,31.67,1018.00,2038.99,1952.45,2140.22,2291.09,348.95,319.65,29.30,0000 0000 0000 0000 000000
2013-12-16 00:49:40,0.32,5.24,0.00,26.56,27.57,30.38,5.89,31.96,1017.74,2038.99,1952.16,2140.08,2290.98,349.81,320.18,29.31,0000 0000 0000 0000 000000
2013-12-16 00:50:40,0.19,5.24,0.00,26.52,27.57,30.39,5.92,31.29,1017.62,2038.99,1952.01,2140.00,2290.52,349.07,319.62,29.31,0000 0000 0000 0000 000000
2013-12-16 00:51:40,0.18,5.24,0.00,26.48,27.57,30.37,5.86,32.13,1017.60,2038.99,1951.61,2139.60,2290.20,349.60,320.14,29.32,0000 0000 0000 0000 000000
2013-12-16 00:52:41,0.34,5.25,0.00,26.56,27.57,30.39,5.95,32.17,1017.59,2038.99,1951.21,2139.22,2290.07,350.17,320.58,29.33,0000 0000 0000 0000 000000
2013-12-16 00:53:41,0.33,5.25,0.00,26.61,27.57,30.40,5.92,31.92,1017.47,2038.99,1950.95,2139.07,2289.82,349.91,320.25,29.33,0000 0000 0000 0000 000000
2013-12-16 00:54:42,0.24,5.25,0.00,26.65,27.57,30.37,5.84,31.75,1017.18,2038.99,1950.48,2138.96,2289.33,350.43,320.60,29.34,0000 0000 0000 0000 000000
2013-12-16 00:55:42,0.32,5.25,0.00,26.67,27.57,30.38,5.69,31.88,1017.11,2038.99,1950.17,2138.51,2289.11,349.14,319.37,29.34,0000 0000 0000 0000 000000
2013-12-16 00:56:42,0.30,5.25,0.00,26.70,27.57,30.39,5.98,32.33,1017.08,2038.99,1949.96,2138.22,2288.96,349.63,319.78,29.35,0000 0000 0000 0000 000000
2013-12-16 00:57:43,0.28,5.25,0.00,26.68,27.57,30.41,5.91,32.38,1016.83,2038.99,1949.45,2138.07,2288.47,350.59,320.78,29.35,0000 0000 0000 0000 000000
2013-12-16 00:58:43,0.30,5.26,0.00,26.67,27.57,30.41,5.84,32.25,1016.65,2038.99,1949.16,2137.97,2288.18,349.78,320.18,29.36,0000 0000 0000 0000 000000
2013-12-16 00:59:43,0.23,5.26,0.00,26.67,27.57,30.39,5.98,32.54,1016.62,2038.99,1949.01,2137.60,2288.06,350.70,320.50,29.37,0000 0000 0000 0000 000000
2013-12-16 01:00:44,0.26,5.26,0.00,26.65,27.57,30.37,5.98,32.58,1016.62,2038.99,1948.56,2137.24,2287.97,351.31,321.21,29.37,0000 0000 0000 0000 000000
2013-12-16 01:01:44,0.30,5.26,0.00,26.64,27.57,30.36,5.95,32.50,1016.62,2038.99,1948.20,2137.08,2287.53,351.15,321.08,29.38,0000 0000 0000 0000 000000
2013-12-16 01:02:45,0.26,5.26,0.00,26.64,27.57,30.38,5.89,32.46,1016.60,2038.99,1948.06,2136.86,2287.19,349.76,319.44,29.38,0000 0000 0000 0000 000000
2013-12-16 01:03:45,0.25,5.26,0.00,26.60,27.57,30.36,5.96,32.29,1016.62,2038.99,1947.64,2136.41,2287.05,350.62,320.80,29.39,0000 0000 0000 0000 000000
2013-12-16 01:04:46,0.34,5.27,0.00,26.58,27.56,30.38,5.88,32.50,1016.62,2038.99,1947.23,2136.15,2286.65,349.66,319.83,29.40,0000 0000 0000 0000 000000
2013-12-16 01:05:46,0.32,5.27,0.00,26.60,27.56,30.40,5.88,32.29,1016.62,2038.99,1947.05,2136.03,2286.24,350.61,320.64,29.40,0000 0000 0000 0000 000000
2013-12-16 01:06:47,0.23,5.27,0.00,26.61,27.55,30.38,5.96,32.00,1016.63,2038.99,1946.55,2135.74,2286.08,350.74,320.73,29.41,0000 0000 0000 0000 000000
2013-12-16 01:07:47,0.31,5.27,0.00,26.65,27.55,30.38,5.86,32.04,1016.63,2038.99,1946.20,2135.30,2285.89,349.64,319.67,29.41,0000 0000 0000 0000 000000
2013-12-16 01:08:47,0.32,5.27,0.00,26.70,27.55,30.43,5.79,31.96,1016.65,2038.99,1946.02,2135.11,2285.41,350.48,320.42,29.42,0000 0000 0000 0000 000000
2013-12-16 01:09:48,0.25,5.27,0.00,26.69,27.55,30.39,5.96,32.29,1016.71,2038.99,1945.53,2135.01,2285.15,349.87,319.96,29.43,0000 0000 0000 0000 000000
2013-12-16 01:10:48,0.26,5.28,0.00,26.71,27.55,30.39,6.00,32.33,1016.92,2038.99,1945.19,2134.73,2285.03,350.61,319.84,29.43,0000 0000 0000 0000 000000
2013-12-16 01:11:48,0.29,5.28,0.00,26.69,27.55,30.43,5.85,32.25,1017.05,2038.99,1945.03,2134.29,2284.67,350.30,319.88,29.44,0000 0000 0000 0000 000000
2013-12-16 01:12:49,0.32,5.28,0.00,26.69,27.55,30.40,5.83,32.13,1017.10,2039.00,1944.56,2134.09,2284.24,349.93,319.70,29.44,0000 0000 0000 0000 000000
2013-12-16 01:13:49,0.32,5.28,0.00,26.67,27.55,30.36,5.93,31.75,1017.11,2039.01,1944.20,2133.99,2284.09,350.33,320.71,29.45,0000 0000 0000 0000 000000
2013-12-16 01:14:50,0.21,5.28,0.00,26.62,27.55,30.38,5.92,31.75,1017.13,2039.00,1944.07,2133.60,2283.95,350.55,320.72,29.45,0000 0000 0000 0000 000000
2013-12-16 01:15:50,0.25,5.28,0.00,26.63,27.55,30.39,5.82,32.04,1017.17,2039.01,1943.74,2133.22,2283.47,350.34,320.11,29.46,0000 0000 0000 0000 000000
2013-12-16 01:16:50,0.37,5.29,0.00,26.64,27.55,30.40,5.92,31.42,1017.26,2039.01,1943.29,2133.08,2283.17,350.11,320.33,29.47,0000 0000 0000 0000 000000
2013-12-16 01:17:51,0.28,5.29,0.00,26.62,27.55,30.40,5.83,31.92,1017.37,2039.00,1943.08,2132.96,2283.05,349.50,319.84,29.47,0000 0000 0000 0000 000000
2013-12-16 01:18:51,0.16,5.29,0.00,26.56,27.55,30.39,5.89,31.79,1017.33,2039.01,1942.69,2132.51,2282.69,349.94,320.28,29.48,0000 0000 0000 0000 000000
2013-12-16 01:19:52,0.40,5.29,0.00,26.55,27.55,30.40,5.83,31.67,1017.49,2039.01,1942.26,2132.19,2282.25,350.53,320.88,29.48,0000 0000 0000 0000 000000
2013-12-16 01:20:52,0.36,5.29,0.00,26.52,27.55,30.40,5.74,31.63,1017.55,2039.00,1942.08,2132.07,2282.09,349.15,319.68,29.49,0000 0000 0000 0000 000000
2013-12-16 01:21:52,0.15,5.29,0.00,26.52,27.54,30.33,5.87,31.67,1017.56,2039.00,1941.85,2131.95,2281.95,349.24,319.78,29.50,0000 0000 0000 0000 000000
2013-12-16 01:22:53,0.21,5.30,0.00,26.56,27.54,30.34,5.86,31.46,1017.55,2039.00,1941.39,2131.55,2281.49,350.15,320.45,29.50,0000 0000 0000 0000 000000
2013-12-16 01:23:53,0.42,5.30,0.00,26.55,27.55,30.35,5.99,31.71,1017.52,2039.00,1941.15,2131.22,2281.18,350.87,320.96,29.51,0000 0000 0000 0000 000000
2013-12-16 01:24:53,0.26,5.30,0.00,26.59,27.54,30.39,5.97,31.67,1017.53,2039.00,1940.99,2131.06,2281.07,350.93,321.10,29.51,0000 0000 0000 0000 000000
2013-12-16 01:25:54,0.15,5.30,0.00,26.63,27.54,30.36,5.84,31.67,1017.51,2039.01,1940.50,2130.98,2280.87,350.88,321.17,29.52,0000 0000 0000 0000 000000
2013-12-16 01:26:54,0.27,5.30,0.00,26.64,27.53,30.36,5.88,31.67,1017.44,2039.00,1940.19,2130.53,2280.41,349.81,320.13,29.53,0000 0000 0000 0000 000000
2013-12-16 01:27:55,0.38,5.30,0.00,26.66,27.53,30.36,5.90,31.92,1017.34,2039.01,1940.00,2130.20,2280.15,350.92,320.51,29.53,0000 0000 0000 0000 000000
2013-12-16 01:28:55,0.24,5.31,0.00,26.67,27.53,30.36,5.96,31.58,1017.30,2039.00,1939.52,2130.06,2280.03,349.50,319.75,29.54,0000 0000 0000 0000 000000
2013-12-16 01:29:56,0.24,5.31,0.00,26.68,27.52,30.39,6.00,31.92,1017.23,2039.00,1939.19,2129.94,2279.75,350.87,320.87,29.54,0000 0000 0000 0000 000000
2013-12-16 01:30:56,0.22,5.31,0.00,26.64,27.52,30.38,5.92,31.88,1017.22,2039.01,1939.06,2129.53,2279.32,349.97,320.20,29.55,0000 0000 0000 0000 000000
2013-12-16 01:31:56,0.32,5.31,0.00,26.64,27.52,30.38,5.91,31.46,1017.21,2039.02,1938.79,2129.21,2279.11,350.43,320.56,29.55,0000 0000 0000 0000 000000
2013-12-16 01:32:57,0.29,5.31,0.00,26.65,27.52,30.39,5.91,31.67,1017.17,2039.00,1938.30,2129.07,2278.95,349.32,319.57,29.56,0000 0000 0000 0000 000000
2013-12-16 01:33:57,0.23,5.31,0.00,26.67,27.52,30.39,5.93,31.88,1017.22,2039.00,1938.11,2128.92,2278.46,350.36,320.35,29.57,0000 0000 0000 0000 000000
2013-12-16 01:34:58,0.25,5.31,0.00,26.67,27.52,30.39,5.93,31.92,1017.34,2039.00,1937.76,2128.43,2278.17,350.98,321.28,29.57,0000 0000 0000 0000 000000
2013-12-16 01:35:58,0.40,5.32,0.00,26.68,27.52,30.39,5.86,31.83,1017.37,2039.00,1937.29,2128.16,2278.04,350.30,320.62,29.58,0000 0000 0000 0000 000000
2013-12-16 01:36:58,0.29,5.32,0.00,26.66,27.52,30.38,5.92,32.25,1017.50,2039.00,1937.10,2128.05,2277.77,349.79,319.99,29.58,0000 0000 0000 0000 000000
2013-12-16 01:37:59,0.17,5.32,0.00,26.64,27.52,30.38,5.90,31.79,1017.55,2039.00,1936.87,2127.92,2277.33,350.89,321.38,29.59,0000 0000 0000 0000 000000
2013-12-16 01:38:59,0.27,5.32,0.00,26.62,27.52,30.39,5.88,31.63,1017.57,2039.00,1936.39,2127.43,2277.12,349.39,319.89,29.60,0000 0000 0000 0000 000000
2013-12-16 01:39:59,0.38,5.32,0.00,26.69,27.52,30.38,5.71,31.67,1017.59,2039.00,1936.14,2127.15,2277.00,349.30,319.30,29.60,0000 0000 0000 0000 000000
2013-12-16 01:41:00,0.22,5.32,0.00,26.71,27.52,30.37,5.78,31.58,1017.59,2039.00,1935.98,2127.04,2276.63,349.64,319.94,29.61,0000 0000 0000 0000 000000
2013-12-16 01:42:00,0.20,5.33,0.00,26.69,27.52,30.38,5.84,31.46,1017.59,2039.00,1935.50,2126.90,2276.25,349.25,319.60,29.61,0000 0000 0000 0000 000000
2013-12-16 01:43:01,0.32,5.33,0.00,26.63,27.52,30.35,5.76,31.67,1017.59,2039.00,1935.18,2126.47,2276.07,349.23,319.65,29.62,0000 0000 0000 0000 000000
2013-12-16 01:44:01,0.32,5.33,0.00,26.57,27.52,30.39,5.92,31.58,1017.59,2039.00,1934.90,2126.17,2275.79,349.73,320.17,29.63,0000 0000 0000 0000 000000
2013-12-16 01:45:02,0.29,5.33,0.00,26.60,27.52,30.37,5.87,31.13,1017.59,2039.00,1934.42,2126.05,2275.34,350.13,320.51,29.63,0000 0000 0000 0000 000000
2013-12-16 01:46:02,0.30,5.33,0.00,26.59,27.52,30.38,6.03,31.79,1017.62,2039.00,1934.15,2125.80,2275.13,350.50,321.08,29.64,0000 0000 0000 0000 000000
2013-12-16 01:47:02,0.27,5.33,0.00,26.60,27.52,30.39,5.92,31.79,1017.69,2039.01,1934.03,2125.35,2275.03,349.88,320.30,29.64,0000 0000 0000 0000 000000
2013-12-16 01:48:03,0.24,5.34,0.00,26.57,27.52,30.34,5.77,31.63,1017.70,2039.03,1933.67,2125.14,2274.74,349.11,319.63,29.65,0000 0000 0000 0000 000000
2013-12-16 01:49:03,0.32,5.34,0.00,26.54,27.52,30.36,5.84,31.92,1017.71,2039.02,1933.25,2125.04,2274.33,349.74,320.32,29.65,0000 0000 0000 0000 000000
2013-12-16 01:50:03,0.24,5.34,0.00,26.56,27.52,30.35,5.84,31.63,1017.79,2039.01,1933.06,2124.90,2274.11,349.06,320.04,29.66,0000 0000 0000 0000 000000
2013-12-16 01:51:04,0.15,5.34,0.00,26.56,27.52,30.37,5.91,31.75,1017.80,2039.01,1932.60,2124.41,2273.99,350.57,321.02,29.67,0000 0000 0000 0000 000000
2013-12-16 01:52:04,0.43,5.34,0.00,26.60,27.52,30.36,5.87,31.83,1017.72,2039.03,1932.22,2124.15,2273.55,349.58,319.68,29.67,0000 0000 0000 0000 000000
2013-12-16 01:53:05,0.35,5.35,0.00,26.65,27.52,30.39,5.98,31.63,1017.79,2039.05,1932.06,2124.05,2273.19,350.81,321.41,29.68,0000 0000 0000 0000 000000
2013-12-16 01:54:05,0.16,5.35,0.00,26.66,27.52,30.38,5.98,32.08,1017.83,2039.03,1931.62,2123.79,2273.06,349.92,320.32,29.68,0000 0000 0000 0000 000000
2013-12-16 01:55:05,0.32,5.35,0.00,26.64,27.52,30.39,5.87,31.83,1017.90,2039.02,1931.23,2123.33,2272.86,350.72,321.10,29.69,0000 0000 0000 0000 000000
2013-12-16 01:56:06,0.33,5.35,0.00,26.64,27.51,30.37,5.93,31.79,1018.02,2039.03,1931.07,2123.12,2272.38,349.86,320.34,29.70,0000 0000 0000 0000 000000
2013-12-16 01:57:06,0.25,5.35,0.00,26.65,27.51,30.38,5.86,32.21,1017.96,2039.02,1930.77,2123.01,2272.13,349.55,319.99,29.70,0000 0000 0000 0000 000000
2013-12-16 01:58:06,0.21,5.35,0.00,26.65,27.51,30.36,5.84,32.00,1017.96,2039.01,1930.29,2122.70,2272.01,349.01,319.27,29.71,0000 0000 0000 0000 000000
2013-12-16 01:59:07,0.31,5.35,0.00,26.65,27.50,30.40,5.76,32.00,1017.88,2039.02,1930.09,2122.29,2271.76,350.15,320.77,29.71,0000 0000 0000 0000 000000
2013-12-16 02:00:07,0.30,5.36,0.00,26.64,27.50,30.36,5.94,31.92,1017.85,2039.03,1929.69,2122.10,2271.37,350.12,320.53,29.72,0000 0000 0000 0000 000000
2013-12-16 02:01:07,0.33,5.36,0.00,26.62,27.50,30.39,5.92,32.04,1017.80,2039.04,1929.29,2122.01,2271.14,349.19,319.68,29.72,0000 0000 0000 0000 000000
2013-12-16 02:02:08,0.21,5.36,0.00,26.61,27.50,30.37,6.00,32.00,1017.75,2039.02,1929.10,2121.61,2270.91,351.12,321.44,29.73,0000 0000 0000 0000 000000
2013-12-16 02:03:08,0.29,5.36,0.00,26.64,27.50,30.37,5.98,32.17,1017.80,2039.02,1928.89,2121.26,2270.46,350.13,320.53,29.74,0000 0000 0000 0000 000000
2013-12-16 02:04:08,0.30,5.36,0.00,26.60,27.50,30.39,6.01,32.17,1017.79,2039.03,1928.41,2121.09,2270.18,350.30,320.86,29.74,0000 0000 0000 0000 000000
2013-12-16 02:05:09,0.35,5.37,0.00,26.58,27.50,30.38,5.92,32.04,1017.72,2039.02,1928.15,2121.00,2270.05,350.58,321.14,29.75,0000 0000 0000 0000 000000
2013-12-16 02:06:09,0.10,5.37,0.00,26.58,27.50,30.36,5.93,32.21,1017.62,2039.02,1927.96,2120.72,2269.84,350.10,320.50,29.75,0000 0000 0000 0000 000000
2013-12-16 02:07:10,0.26,5.37,0.00,26.55,27.50,30.37,5.96,32.29,1017.60,2039.02,1927.45,2120.30,2269.36,350.85,321.21,29.76,0000 0000 0000 0000 000000
2013-12-16 02:08:10,0.46,5.37,0.00,26.57,27.50,30.36,5.93,32.25,1017.60,2039.01,1927.17,2120.11,2269.13,350.76,321.11,29.77,0000 0000 0000 0000 000000
2013-12-16 02:09:10,0.22,5.37,0.00,26.54,27.50,30.35,5.82,32.21,1017.60,2039.00,1927.01,2120.03,2269.03,350.10,320.53,29.77,0000 0000 0000 0000 000000
2013-12-16 02:10:11,0.09,5.37,0.00,26.54,27.50,30.36,5.95,32.25,1017.60,2039.00,1926.56,2119.76,2268.63,349.74,320.21,29.78,0000 0000 0000 0000 000000
2013-12-16 02:11:11,0.36,5.37,0.00,26.58,27.50,30.38,5.83,31.92,1017.59,2039.00,1926.21,2119.33,2268.25,350.63,320.98,29.78,0000 0000 0000 0000 000000
2013-12-16 02:12:11,0.40,5.38,0.00,26.61,27.50,30.41,5.90,32.04,1017.59,2039.01,1926.07,2119.11,2268.09,350.13,320.49,29.79,0000 0000 0000 0000 000000
2013-12-16 02:13:12,0.16,5.38,0.00,26.62,27.50,30.38,5.89,32.29,1017.60,2039.03,1925.77,2119.03,2268.00,348.99,319.44,29.80,0000 0000 0000 0000 000000
2013-12-16 02:14:12,0.20,5.38,0.00,26.62,27.50,30.41,5.78,32.08,1017.59,2039.04,1925.33,2118.76,2267.59,349.43,320.10,29.80,0000 0000 0000 0000 000000
2013-12-16 02:15:12,0.38,5.38,0.00,26.62,27.50,30.38,5.80,32.38,1017.59,2039.07,1925.11,2118.33,2267.22,348.39,318.89,29.81,0000 0000 0000 0000 000000
2013-12-16 02:16:13,0.37,5.38,0.00,26.63,27.50,30.38,5.90,31.83,1017.59,2039.11,1924.88,2118.12,2267.07,349.64,319.91,29.81,0000 0000 0000 0000 000000
2013-12-16 02:17:13,0.24,5.38,0.00,26.63,27.50,30.39,5.82,32.08,1017.59,2039.08,1924.39,2118.01,2266.87,349.14,319.39,29.82,0000 0000 0000 0000 000000
2013-12-16 02:18:14,0.23,5.39,0.00,26.61,27.50,30.38,5.97,32.08,1017.60,2039.05,1924.13,2117.75,2266.38,349.84,319.86,29.82,0000 0000 0000 0000 000000
2013-12-16 02:19:14,0.27,5.39,0.00,26.55,27.50,30.35,5.89,32.08,1017.60,2039.04,1923.92,2117.32,2266.14,350.01,320.72,29.83,0000 0000 0000 0000 000000
2013-12-16 02:20:15,0.32,5.39,0.00,26.41,27.50,30.35,5.95,31.92,1017.59,2039.04,1923.46,2117.11,2266.03,350.76,321.05,29.84,0000 0000 0000 0000 000000
2013-12-16 02:21:15,0.25,5.39,0.00,26.41,27.50,30.36,5.86,32.13,1017.60,2039.03,1923.17,2117.03,2265.66,350.78,321.01,29.84,0000 0000 0000 0000 000000
2013-12-16 02:22:16,0.22,5.39,0.00,26.46,27.50,30.35,5.69,31.96,1017.65,2039.01,1923.00,2116.74,2265.26,348.88,319.52,29.85,0000 0000 0000 0000 000000
2013-12-16 02:23:16,0.25,5.39,0.00,26.45,27.50,30.36,5.92,31.79,1017.74,2039.02,1922.53,2116.32,2265.09,351.29,321.78,29.85,0000 0000 0000 0000 000000
2013-12-16 02:24:16,0.38,5.40,0.00,26.47,27.50,30.36,5.79,31.79,1017.88,2039.08,1922.19,2116.11,2264.88,348.22,319.27,29.86,0000 0000 0000 0000 000000
2013-12-16 02:25:17,0.30,5.40,0.00,26.54,27.50,30.35,5.82,31.67,1017.86,2039.05,1922.06,2116.01,2264.45,348.95,319.22,29.87,0000 0000 0000 0000 000000
2013-12-16 02:26:17,0.19,5.40,0.00,26.55,27.50,30.34,5.80,32.00,1017.90,2039.03,1921.63,2115.65,2264.17,348.98,319.80,29.87,0000 0000 0000 0000 000000
2013-12-16 02:27:17,0.32,5.40,0.00,26.59,27.50,30.32,5.98,32.13,1017.93,2039.04,1921.27,2115.25,2264.05,351.42,321.95,29.88,0000 0000 0000 0000 000000
2013-12-16 02:28:18,0.32,5.40,0.00,26.62,27.50,30.35,5.92,31.96,1017.99,2039.03,1921.08,2115.09,2263.79,349.78,320.28,29.88,0000 0000 0000 0000 000000
2013-12-16 02:29:18,0.18,5.40,0.00,26.58,27.50,30.32,5.91,32.08,1018.03,2039.04,1920.73,2115.00,2263.31,349.95,319.98,29.89,0000 0000 0000 0000 000000
2013-12-16 02:30:18,0.28,5.41,0.00,26.57,27.50,30.34,5.92,32.04,1017.98,2039.04,1920.29,2114.70,2263.11,350.27,320.89,29.89,0000 0000 0000 0000 000000
2013-12-16 02:31:19,0.35,5.41,0.00,26.59,27.50,30.31,5.91,31.96,1018.04,2039.07,1920.10,2114.28,2263.01,350.45,320.96,29.90,0000 0000 0000 0000 000000
2013-12-16 02:32:19,0.29,5.41,0.00,26.58,27.50,30.31,5.93,31.88,1018.05,2039.05,1919.99,2114.10,2262.64,348.24,318.94,29.91,0000 0000 0000 0000 000000
2013-12-16 02:33:19,0.18,5.41,0.00,26.58,27.50,30.32,5.92,31.83,1018.02,2039.05,1919.56,2114.03,2262.25,350.43,320.61,29.91,0000 0000 0000 0000 000000
2013-12-16 02:34:20,0.25,5.41,0.00,26.57,27.50,30.33,5.94,32.25,1017.98,2039.08,1919.20,2113.78,2262.09,349.81,320.37,29.92,0000 0000 0000 0000 000000
2013-12-16 02:35:20,0.28,5.41,0.00,26.57,27.50,30.34,5.91,32.08,1017.94,2039.05,1918.97,2113.33,2261.80,349.36,319.94,29.92,0000 0000 0000 0000 000000
2013-12-16 02:36:21,0.32,5.41,0.00,26.58,27.50,30.34,5.73,31.75,1017.83,2039.03,1918.46,2113.12,2261.34,349.00,319.57,29.93,0000 0000 0000 0000 000000